COSMOS 2251 DEB, 39553

Orbit data source: Space-Track

COSMOS 2251 DEB, 39553 is space debris in LEO originally from a launch on Wed, 16 Jun 1993 UTC launched from the Plesetsk Missile And Space Complex (PKMTR). The debris from Iridium 33, an American commercial communications satellite, has been tracked extensively since its accidental collision with the defunct Russian satellite Cosmos 2251 in 2009. This event, occurring at high speed in low Earth orbit (LEO), generated thousands of pieces of space debris, significantly increasing the risk of further collisions. The Iridium 33 debris cloud has impacted space traffic management and orbital debris mitigation strategies, making it a subject of ongoing study in space situational awareness.

Loading next visibility...
Identifier
39553, 1993-036BUK
Orbit
LEO
Country
Flag of CISCIS
Related business
Manufacturer
Unknown
Mission
Spacecraft
Bus & Motor
Unknown
Mass
Unknown
Launch date (UTC)
1993-06-16 (33 years ago)
Launch vehicle
Unknown
Launch site
Plesetsk Missile And Space Complex (PKMTR)
Object type
Payload
Rocket body
Debris
Shape & HBR
Unknown shape, 0.1 m
Radar Cross Section
Small (<0.1 m²)

Expand to show TLE details & history
Last TLE update: 5 days ago

TLE from 5 days ago
0 COSMOS 2251 DEB
1 39553U 93036BUK 26059.06380821  .00001814  00000-0  10340-2 0  9990
2 39553  74.0287 196.0355 0206745 313.8074  44.6119 14.00266341766993
Epoch: 2026-02-28T01:31Z
TLE epoch observation values (Epoch: 2026-02-28T01:31:53.029Z)
Latitude
-0.00002°
Longitude
15.17324°
Altitude
789.98 km
Speed
7.513 km/s
True Right ascension
13h 04m 08s
True Declination
0° 00' 00"
Sunlit
Object was in full shadow at epoch
Visualization orbit readout
Latitude
Unknown
Longitude
Unknown
Altitude
Unknown
Speed
Unknown
Apparent Right ascension
Unknown
Apparent Declination
Unknown
Sunlit
N/A
Visualization observer readout
Local Sidereal Time
03:28:31
Azimuth
Unknown
Elevation
Unknown
Doppler factor
Unknown
Orbital elements
Apogee altitude
1,040.812 km
Perigee altitude
740.26 km
Semi-major axis
7,268.673 km
Eccentricity
0.02067
Inclination
74.0287°
RAAN
196.0355°
Arg. of periapsis
313.8074°
True anomaly
46.30665°
Mean anomaly
44.6119°
Eccentric anomaly
45.45615°
Mean motion
3.50236 °/min
Orbital period
102.79 mins
BSTAR
0.001034
Loading maneuver chart data...
Computing Atmospheric mass density...

Documentation

Showing up to 5 results
|